Station Historical Data
Daily Summary for July 8, 2012 Units:  English    Metric   Both
« Previous Day
Next Day »
Daily Weekly Monthly Yearly Custom
  High: Low: Average:
Temperature: 91.3 °F 74.0 °F 80.4 °F
Dew Point: 75.9 °F 71.0 °F 73.1 °F
Humidity: 92% 54% 79%
Wind Speed: 11.0mph 0.0mph 3.5mph
Wind Gust: 14.0mph - -
Wind- - SSW
Pressure: 29.99 in 29.85 in -
Precipitation: 0.07 in    
Historical Graphs
 
 
Tabular Data for July 8, 2012
Time Temperature Dew Point Pressure Wind Wind Speed Wind Gust Humidity Rainfall Rate (Hourly) Conditions
00:00 78.7 °F 74.2 °F 29.94 in South 3.0 mph 4.0 mph 86% 0.00 in
00:01 78.7 °F 74.2 °F 29.94 in South 5.0 mph 5.0 mph 86% 0.00 in
00:06 78.7 °F 74.2 °F 29.94 in SSE 3.0 mph 5.0 mph 86% 0.00 in
00:11 78.7 °F 74.2 °F 29.94 in SE 1.0 mph 4.0 mph 86% 0.00 in
00:16 78.6 °F 74.4 °F 29.94 in South 2.0 mph 5.0 mph 87% 0.00 in
00:21 78.5 °F 74.3 °F 29.94 in South 3.0 mph 6.0 mph 87% 0.00 in
00:26 78.5 °F 74.7 °F 29.94 in South 5.0 mph 5.0 mph 88% 0.00 in
00:31 78.5 °F 74.7 °F 29.94 in SW 4.0 mph 4.0 mph 88% 0.00 in
00:36 78.4 °F 74.6 °F 29.94 in South 3.0 mph 5.0 mph 88% 0.00 in
00:41 78.4 °F 74.6 °F 29.94 in South 2.0 mph 5.0 mph 88% 0.00 in
00:46 78.5 °F 74.7 °F 29.94 in SE 5.0 mph 6.0 mph 88% 0.00 in
00:52 78.5 °F 74.7 °F 29.94 in SSW 4.0 mph 5.0 mph 88% 0.00 in
00:57 78.6 °F 74.4 °F 29.95 in SSW 3.0 mph 4.0 mph 87% 0.00 in
01:02 78.7 °F 74.5 °F 29.94 in South 2.0 mph 5.0 mph 87% 0.00 in
01:07 78.7 °F 74.5 °F 29.94 in SSE 3.0 mph 4.0 mph 87% 0.00 in
01:12 78.7 °F 74.5 °F 29.94 in SSE 4.0 mph 4.0 mph 87% 0.00 in
01:17 78.7 °F 74.5 °F 29.94 in SSE 2.0 mph 5.0 mph 87% 0.00 in
01:22 78.7 °F 74.5 °F 29.94 in SSE 3.0 mph 4.0 mph 87% 0.00 in
01:27 78.6 °F 74.4 °F 29.94 in SSE 3.0 mph 4.0 mph 87% 0.00 in
01:32 78.5 °F 74.3 °F 29.94 in South 2.0 mph 5.0 mph 87% 0.00 in
01:37 78.3 °F 74.1 °F 29.94 in SSW 2.0 mph 4.0 mph 87% 0.00 in
01:42 78.3 °F 74.1 °F 29.94 in SSW 6.0 mph 6.0 mph 87% 0.00 in
01:47 78.3 °F 74.1 °F 29.94 in South 4.0 mph 4.0 mph 87% 0.00 in
01:52 78.3 °F 74.1 °F 29.94 in SSW 3.0 mph 8.0 mph 87% 0.00 in
01:57 78.3 °F 74.1 °F 29.94 in SSW 2.0 mph 6.0 mph 87% 0.00 in
02:02 78.2 °F 74.0 °F 29.93 in SSW 4.0 mph 7.0 mph 87% 0.00 in
02:07 78.1 °F 73.6 °F 29.93 in South 3.0 mph 6.0 mph 86% 0.00 in
02:12 78.1 °F 73.6 °F 29.93 in SSW 2.0 mph 6.0 mph 86% 0.00 in
02:17 78.0 °F 73.5 °F 29.93 in SSE 5.0 mph 5.0 mph 86% 0.00 in
02:22 78.0 °F 73.5 °F 29.93 in SSE 4.0 mph 5.0 mph 86% 0.00 in
02:27 78.0 °F 73.5 °F 29.93 in SSE 2.0 mph 5.0 mph 86% 0.00 in
02:32 77.9 °F 73.4 °F 29.93 in SSW 2.0 mph 3.0 mph 86% 0.00 in
02:37 77.8 °F 72.9 °F 29.93 in SSE 3.0 mph 3.0 mph 85% 0.00 in
02:42 77.7 °F 72.8 °F 29.94 in SSE 3.0 mph 3.0 mph 85% 0.00 in
02:47 77.5 °F 73.0 °F 29.95 in SSE 2.0 mph 3.0 mph 86% 0.00 in
02:52 77.4 °F 72.9 °F 29.95 in SSE 2.0 mph 3.0 mph 86% 0.00 in
02:57 77.3 °F 72.8 °F 29.95 in South 2.0 mph 2.0 mph 86% 0.00 in
03:02 77.2 °F 72.7 °F 29.95 in SE 1.0 mph 2.0 mph 86% 0.00 in
03:07 77.2 °F 72.7 °F 29.95 in SE 2.0 mph 2.0 mph 86% 0.00 in
03:12 77.1 °F 72.9 °F 29.95 in SE 2.0 mph 2.0 mph 87% 0.00 in
03:17 77.0 °F 72.8 °F 29.95 in SSE 1.0 mph 3.0 mph 87% 0.00 in
03:22 76.9 °F 72.7 °F 29.95 in SSW 2.0 mph 3.0 mph 87% 0.00 in
03:27 76.9 °F 72.7 °F 29.95 in SE 3.0 mph 3.0 mph 87% 0.00 in
03:32 76.8 °F 72.6 °F 29.95 in SSE 1.0 mph 2.0 mph 87% 0.00 in
03:37 76.7 °F 72.5 °F 29.95 in SSE 2.0 mph 3.0 mph 87% 0.00 in
03:42 76.7 °F 72.5 °F 29.95 in South 2.0 mph 4.0 mph 87% 0.00 in
03:47 76.8 °F 72.6 °F 29.95 in SSE 3.0 mph 3.0 mph 87% 0.00 in
03:52 76.8 °F 72.3 °F 29.95 in SSE 3.0 mph 4.0 mph 86% 0.00 in
03:57 76.7 °F 72.5 °F 29.94 in SSE 3.0 mph 3.0 mph 87% 0.00 in
04:02 76.5 °F 72.3 °F 29.94 in SSE 4.0 mph 5.0 mph 87% 0.00 in
04:07 76.5 °F 72.3 °F 29.94 in SSW 3.0 mph 4.0 mph 87% 0.00 in
04:12 76.5 °F 72.3 °F 29.95 in South 4.0 mph 5.0 mph 87% 0.00 in
04:17 76.6 °F 72.4 °F 29.94 in South 2.0 mph 5.0 mph 87% 0.00 in
04:23 76.6 °F 72.4 °F 29.95 in South 4.0 mph 6.0 mph 87% 0.00 in
04:28 76.5 °F 72.3 °F 29.94 in SE 2.0 mph 4.0 mph 87% 0.00 in
04:33 76.4 °F 72.2 °F 29.94 in South 3.0 mph 6.0 mph 87% 0.00 in
04:38 76.2 °F 72.1 °F 29.94 in South 3.0 mph 7.0 mph 87% 0.00 in
04:43 76.1 °F 71.9 °F 29.94 in South 3.0 mph 5.0 mph 87% 0.00 in
04:48 76.0 °F 72.2 °F 29.94 in South 3.0 mph 5.0 mph 88% 0.00 in
04:53 76.0 °F 71.9 °F 29.94 in SSE 3.0 mph 6.0 mph 87% 0.00 in
04:58 75.9 °F 71.8 °F 29.95 in SE 4.0 mph 6.0 mph 87% 0.00 in
05:03 75.9 °F 71.8 °F 29.95 in SW 2.0 mph 2.0 mph 87% 0.00 in
05:08 75.9 °F 71.8 °F 29.96 in WSW 2.0 mph 3.0 mph 87% 0.00 in
05:13 76.0 °F 71.9 °F 29.96 in South 1.0 mph 3.0 mph 87% 0.00 in
05:18 76.0 °F 71.5 °F 29.96 in South 2.0 mph 4.0 mph 86% 0.00 in
05:23 75.9 °F 71.4 °F 29.96 in SSE 3.0 mph 4.0 mph 86% 0.00 in
05:28 75.9 °F 71.8 °F 29.96 in SSE 2.0 mph 4.0 mph 87% 0.00 in
05:33 75.7 °F 71.6 °F 29.96 in South 6.0 mph 6.0 mph 87% 0.00 in
05:38 75.7 °F 71.6 °F 29.96 in SSW 3.0 mph 6.0 mph 87% 0.00 in
05:43 75.6 °F 71.5 °F 29.97 in SSE 2.0 mph 4.0 mph 87% 0.00 in
05:48 75.5 °F 71.4 °F 29.96 in South 3.0 mph 5.0 mph 87% 0.00 in
05:53 75.5 °F 71.4 °F 29.97 in SSE 3.0 mph 4.0 mph 87% 0.00 in
05:58 75.3 °F 71.5 °F 29.97 in SSE 2.0 mph 4.0 mph 88% 0.00 in
06:03 75.2 °F 71.4 °F 29.97 in SSE 2.0 mph 3.0 mph 88% 0.00 in
06:08 75.2 °F 71.4 °F 29.96 in South 2.0 mph 4.0 mph 88% 0.00 in
06:13 75.0 °F 71.2 °F 29.96 in SE 2.0 mph 2.0 mph 88% 0.00 in
06:19 74.9 °F 71.4 °F 29.96 in South 1.0 mph 3.0 mph 89% 0.00 in
06:24 74.7 °F 71.2 °F 29.96 in SE 2.0 mph 3.0 mph 89% 0.00 in
06:29 74.6 °F 71.2 °F 29.96 in South 1.0 mph 1.0 mph 89% 0.00 in
06:34 74.6 °F 71.5 °F 29.96 in SSW 1.0 mph 3.0 mph 90% 0.00 in
06:39 74.5 °F 71.4 °F 29.96 in SW 3.0 mph 4.0 mph 90% 0.00 in
06:44 74.4 °F 71.3 °F 29.96 in South 4.0 mph 4.0 mph 90% 0.00 in
06:49 74.3 °F 71.2 °F 29.95 in SSE 3.0 mph 5.0 mph 90% 0.00 in
06:54 74.3 °F 71.5 °F 29.96 in SW 2.0 mph 5.0 mph 91% 0.00 in
06:59 74.3 °F 71.5 °F 29.95 in SSW 2.0 mph 5.0 mph 91% 0.00 in
07:04 74.3 °F 71.5 °F 29.95 in SSW 1.0 mph 4.0 mph 91% 0.00 in
07:09 74.2 °F 71.4 °F 29.95 in SSW 3.0 mph 3.0 mph 91% 0.00 in
07:14 74.2 °F 71.4 °F 29.95 in SW 3.0 mph 5.0 mph 91% 0.00 in
07:19 74.2 °F 71.4 °F 29.95 in NW 1.0 mph 3.0 mph 91% 0.00 in
07:24 74.2 °F 71.4 °F 29.95 in WNW 1.0 mph 2.0 mph 91% 0.00 in
07:29 74.3 °F 71.5 °F 29.96 in WSW 2.0 mph 4.0 mph 91% 0.00 in
07:34 74.3 °F 71.5 °F 29.95 in WSW 4.0 mph 4.0 mph 91% 0.00 in
07:39 74.3 °F 71.8 °F 29.96 in West 3.0 mph 4.0 mph 92% 0.00 in
07:44 74.2 °F 71.7 °F 29.96 in SW 2.0 mph 4.0 mph 92% 0.00 in
07:49 74.2 °F 71.7 °F 29.96 in SSW 2.0 mph 3.0 mph 92% 0.00 in
07:54 74.2 °F 71.7 °F 29.97 in SE 4.0 mph 5.0 mph 92% 0.00 in
07:59 74.0 °F 71.5 °F 29.97 in SE 5.0 mph 5.0 mph 92% 0.00 in
08:04 74.0 °F 71.5 °F 29.97 in SW 3.0 mph 7.0 mph 92% 0.00 in
08:09 74.2 °F 71.4 °F 29.97 in South 4.0 mph 11.0 mph 91% 0.33 in
08:14 74.3 °F 71.8 °F 29.98 in SSE 3.0 mph 7.0 mph 92% 0.09 in
08:19 74.2 °F 71.7 °F 29.98 in SW 1.0 mph 4.0 mph 92% 0.07 in
08:24 74.1 °F 71.6 °F 29.98 in West 1.0 mph 3.0 mph 92% 0.15 in
08:29 74.0 °F 71.5 °F 29.99 in WSW 4.0 mph 6.0 mph 92% 0.10 in
08:34 74.2 °F 71.7 °F 29.98 in SW 3.0 mph 5.0 mph 92% 0.08 in
08:39 74.3 °F 71.8 °F 29.98 in SW 2.0 mph 5.0 mph 92% 0.05 in
08:44 74.3 °F 71.8 °F 29.98 in West 1.0 mph 3.0 mph 92% 0.04 in
08:49 74.4 °F 71.9 °F 29.98 in Calm   1.0 mph 92% 0.04 in
08:54 74.5 °F 72.0 °F 29.98 in Calm   1.0 mph 92% 0.04 in
08:59 74.7 °F 72.2 °F 29.98 in WNW 3.0 mph 3.0 mph 92% 0.04 in
09:04 74.7 °F 72.2 °F 29.98 in West 1.0 mph 3.0 mph 92% 0.00 in
09:10 74.8 °F 72.3 °F 29.98 in West 4.0 mph 4.0 mph 92% 0.00 in
09:15 75.1 °F 72.6 °F 29.98 in SW 4.0 mph 5.0 mph 92% 0.00 in
09:20 75.5 °F 73.0 °F 29.98 in WSW 2.0 mph 4.0 mph 92% 0.00 in
09:25 76.0 °F 73.2 °F 29.98 in West 5.0 mph 6.0 mph 91% 0.00 in
09:30 76.6 °F 73.8 °F 29.98 in West 6.0 mph 6.0 mph 91% 0.00 in
09:35 76.8 °F 72.3 °F 29.98 in West 6.0 mph 8.0 mph 86% 0.00 in
09:40 77.4 °F 73.2 °F 29.98 in WSW 3.0 mph 7.0 mph 87% 0.00 in
09:45 78.0 °F 73.1 °F 29.98 in West 5.0 mph 6.0 mph 85% 0.00 in
09:50 78.6 °F 73.7 °F 29.98 in WSW 7.0 mph 7.0 mph 85% 0.00 in
09:55 78.8 °F 73.9 °F 29.98 in SW 5.0 mph 7.0 mph 85% 0.00 in
10:00 78.5 °F 72.6 °F 29.98 in WSW 6.0 mph 7.0 mph 82% 0.00 in
10:05 78.4 °F 73.2 °F 29.97 in SW 6.0 mph 8.0 mph 84% 0.00 in
10:10 78.7 °F 72.4 °F 29.98 in SSW 4.0 mph 8.0 mph 81% 0.00 in
10:15 79.0 °F 73.0 °F 29.98 in SSE 2.0 mph 5.0 mph 82% 0.00 in
10:21 79.5 °F 73.2 °F 29.97 in SSW 4.0 mph 5.0 mph 81% 0.00 in
10:26 79.8 °F 71.9 °F 29.97 in SSW 4.0 mph 6.0 mph 77% 0.00 in
10:31 80.0 °F 71.8 °F 29.97 in SSW 2.0 mph 6.0 mph 76% 0.00 in
10:36 80.6 °F 72.7 °F 29.97 in South 3.0 mph 5.0 mph 77% 0.00 in
10:41 81.3 °F 73.8 °F 29.96 in WSW 3.0 mph 7.0 mph 78% 0.00 in
10:46 81.6 °F 73.3 °F 29.96 in SW 5.0 mph 5.0 mph 76% 0.00 in
10:51 81.8 °F 72.3 °F 29.96 in South 3.0 mph 5.0 mph 73% 0.00 in
10:56 82.5 °F 73.0 °F 29.96 in SSW 2.0 mph 5.0 mph 73% 0.00 in
11:01 83.2 °F 73.2 °F 29.97 in SSE 1.0 mph 4.0 mph 72% 0.00 in
11:06 83.5 °F 72.3 °F 29.97 in SSW 4.0 mph 6.0 mph 69% 0.00 in
11:11 83.8 °F 73.0 °F 29.96 in SE 6.0 mph 6.0 mph 70% 0.00 in
11:16 83.9 °F 71.8 °F 29.96 in WNW 2.0 mph 7.0 mph 67% 0.00 in
11:21 83.9 °F 73.1 °F 29.96 in West 3.0 mph 5.0 mph 70% 0.00 in
11:26 84.3 °F 73.9 °F 29.96 in WSW 6.0 mph 6.0 mph 71% 0.00 in
11:31 84.8 °F 73.5 °F 29.96 in South 6.0 mph 7.0 mph 69% 0.00 in
11:36 85.3 °F 72.2 °F 29.96 in West 3.0 mph 6.0 mph 65% 0.00 in
11:41 85.4 °F 71.8 °F 29.96 in SW 4.0 mph 6.0 mph 64% 0.00 in
11:46 85.5 °F 71.0 °F 29.96 in SW 1.0 mph 7.0 mph 62% 0.00 in
11:51 85.9 °F 71.8 °F 29.96 in SSW 3.0 mph 7.0 mph 63% 0.00 in
11:56 86.0 °F 71.9 °F 29.97 in WSW 6.0 mph 6.0 mph 63% 0.00 in
12:01 86.6 °F 73.4 °F 29.96 in South 4.0 mph 7.0 mph 65% 0.00 in
12:06 86.8 °F 72.7 °F 29.97 in WSW 6.0 mph 9.0 mph 63% 0.00 in
12:11 86.4 °F 73.7 °F 29.97 in WNW 5.0 mph 7.0 mph 66% 0.00 in
12:16 86.6 °F 72.5 °F 29.97 in WNW 4.0 mph 6.0 mph 63% 0.00 in
12:22 86.1 °F 72.0 °F 29.97 in West 5.0 mph 8.0 mph 63% 0.00 in
12:27 86.0 °F 72.4 °F 29.97 in SE 4.0 mph 7.0 mph 64% 0.00 in
12:32 86.4 °F 73.7 °F 29.96 in WSW 7.0 mph 7.0 mph 66% 0.00 in
12:37 86.9 °F 72.8 °F 29.96 in SSW 6.0 mph 9.0 mph 63% 0.00 in
12:42 87.6 °F 72.0 °F 29.96 in SW 4.0 mph 7.0 mph 60% 0.00 in
12:47 87.4 °F 73.3 °F 29.96 in WSW 5.0 mph 7.0 mph 63% 0.00 in
12:52 87.3 °F 72.2 °F 29.96 in SSE 5.0 mph 7.0 mph 61% 0.00 in
12:57 87.8 °F 73.6 °F 29.95 in West 3.0 mph 4.0 mph 63% 0.00 in
13:02 88.2 °F 73.1 °F 29.95 in SE 1.0 mph 6.0 mph 61% 0.00 in
13:07 88.4 °F 72.3 °F 29.95 in West 2.0 mph 7.0 mph 59% 0.00 in
13:12 88.4 °F 74.7 °F 29.95 in WNW 3.0 mph 4.0 mph 64% 0.00 in
13:17 88.8 °F 73.6 °F 29.95 in WSW 3.0 mph 6.0 mph 61% 0.00 in
13:22 89.5 °F 73.8 °F 29.94 in ESE 1.0 mph 3.0 mph 60% 0.00 in
13:27 89.5 °F 73.8 °F 29.94 in SSW 3.0 mph 5.0 mph 60% 0.00 in
13:32 89.3 °F 74.1 °F 29.94 in WNW 3.0 mph 6.0 mph 61% 0.00 in
13:37 89.6 °F 74.9 °F 29.94 in SW 8.0 mph 8.0 mph 62% 0.00 in
13:42 89.4 °F 74.2 °F 29.94 in SSW 6.0 mph 8.0 mph 61% 0.00 in
13:47 89.6 °F 73.4 °F 29.94 in WSW 4.0 mph 8.0 mph 59% 0.00 in
13:52 89.5 °F 74.3 °F 29.94 in SW 4.0 mph 9.0 mph 61% 0.00 in
13:57 90.2 °F 75.9 °F 29.94 in SSW 4.0 mph 9.0 mph 63% 0.00 in
14:02 91.0 °F 74.7 °F 29.94 in SW 1.0 mph 7.0 mph 59% 0.00 in
14:07 90.6 °F 74.3 °F 29.94 in SW 5.0 mph 11.0 mph 59% 0.00 in
14:12 90.2 °F 75.4 °F 29.94 in WSW 4.0 mph 9.0 mph 62% 0.00 in
14:17 90.6 °F 74.8 °F 29.94 in SW 10.0 mph 11.0 mph 60% 0.00 in
14:22 90.5 °F 75.7 °F 29.94 in SW 8.0 mph 13.0 mph 62% 0.00 in
14:27 91.2 °F 74.9 °F 29.94 in SSW 7.0 mph 8.0 mph 59% 0.00 in
14:32 90.6 °F 74.8 °F 29.94 in SW 9.0 mph 9.0 mph 60% 0.00 in
14:37 90.4 °F 75.6 °F 29.93 in WSW 9.0 mph 11.0 mph 62% 0.00 in
14:42 90.3 °F 73.5 °F 29.93 in WSW 4.0 mph 8.0 mph 58% 0.00 in
14:47 90.5 °F 74.7 °F 29.93 in SW 6.0 mph 12.0 mph 60% 0.00 in
14:52 90.3 °F 75.0 °F 29.93 in SSW 5.0 mph 10.0 mph 61% 0.00 in
14:58 90.5 °F 73.7 °F 29.92 in WSW 4.0 mph 8.0 mph 58% 0.00 in
15:03 90.8 °F 74.5 °F 29.92 in West 7.0 mph 9.0 mph 59% 0.00 in
15:08 90.3 °F 73.5 °F 29.92 in WSW 1.0 mph 7.0 mph 58% 0.00 in
15:13 90.8 °F 72.9 °F 29.92 in SW 3.0 mph 11.0 mph 56% 0.00 in
15:18 90.9 °F 72.5 °F 29.91 in SE 7.0 mph 9.0 mph 55% 0.00 in
15:23 91.3 °F 72.3 °F 29.91 in SE 4.0 mph 8.0 mph 54% 0.00 in
15:28 90.9 °F 72.0 °F 29.91 in SW 7.0 mph 8.0 mph 54% 0.00 in
15:33 90.1 °F 72.3 °F 29.92 in South 5.0 mph 10.0 mph 56% 0.00 in
15:38 89.6 °F 71.3 °F 29.92 in SW 8.0 mph 10.0 mph 55% 0.00 in
15:43 89.1 °F 71.4 °F 29.91 in West 5.0 mph 8.0 mph 56% 0.00 in
15:48 88.6 °F 71.4 °F 29.91 in SW 7.0 mph 9.0 mph 57% 0.00 in
15:53 87.9 °F 71.8 °F 29.91 in WSW 5.0 mph 10.0 mph 59% 0.00 in
15:58 87.5 °F 72.4 °F 29.90 in SW 5.0 mph 8.0 mph 61% 0.00 in
16:03 87.1 °F 72.5 °F 29.90 in SW 7.0 mph 10.0 mph 62% 0.00 in
16:08 86.7 °F 73.1 °F 29.90 in SW 9.0 mph 9.0 mph 64% 0.00 in
16:13 86.4 °F 73.2 °F 29.90 in SSW 1.0 mph 8.0 mph 65% 0.00 in
16:18 86.1 °F 73.4 °F 29.89 in SW 11.0 mph 11.0 mph 66% 0.00 in
16:23 85.8 °F 73.6 °F 29.89 in SW 6.0 mph 10.0 mph 67% 0.00 in
16:28 85.9 °F 73.7 °F 29.89 in SW 7.0 mph 7.0 mph 67% 0.00 in
16:33 86.3 °F 74.5 °F 29.88 in SSW 2.0 mph 6.0 mph 68% 0.00 in
16:38 86.8 °F 74.1 °F 29.88 in SW 9.0 mph 12.0 mph 66% 0.00 in
16:43 87.4 °F 75.1 °F 29.87 in South 8.0 mph 9.0 mph 67% 0.00 in
16:48 87.6 °F 74.4 °F 29.88 in SSW 5.0 mph 10.0 mph 65% 0.00 in
16:53 86.9 °F 74.2 °F 29.87 in WSW 6.0 mph 12.0 mph 66% 0.00 in
16:58 86.4 °F 74.2 °F 29.88 in WSW 5.0 mph 14.0 mph 67% 0.00 in
17:03 85.8 °F 74.5 °F 29.88 in SW 7.0 mph 11.0 mph 69% 0.00 in
17:08 85.1 °F 74.6 °F 29.88 in SSW 6.0 mph 13.0 mph 71% 0.00 in
17:13 84.5 °F 74.5 °F 29.89 in SW 11.0 mph 13.0 mph 72% 0.00 in
17:18 84.1 °F 74.9 °F 29.88 in SW 6.0 mph 9.0 mph 74% 0.00 in
17:23 83.9 °F 74.7 °F 29.88 in SSW 4.0 mph 8.0 mph 74% 0.00 in
17:28 83.6 °F 73.2 °F 29.88 in SSW 6.0 mph 11.0 mph 71% 0.00 in
17:33 83.3 °F 73.3 °F 29.88 in SSW 6.0 mph 12.0 mph 72% 0.00 in
17:38 83.0 °F 73.1 °F 29.89 in SW 9.0 mph 11.0 mph 72% 0.00 in
17:43 82.7 °F 73.2 °F 29.89 in SW 3.0 mph 8.0 mph 73% 0.00 in
17:48 82.7 °F 73.6 °F 29.88 in SSW 3.0 mph 5.0 mph 74% 0.00 in
17:53 82.7 °F 73.6 °F 29.89 in SSE 5.0 mph 7.0 mph 74% 0.00 in
17:58 82.7 °F 73.6 °F 29.88 in SSW 4.0 mph 8.0 mph 74% 0.00 in
18:03 82.5 °F 73.8 °F 29.88 in SSW 3.0 mph 7.0 mph 75% 0.00 in
18:08 82.7 °F 74.0 °F 29.88 in South 4.0 mph 5.0 mph 75% 0.00 in
18:13 82.8 °F 74.5 °F 29.88 in SSW 3.0 mph 6.0 mph 76% 0.00 in
18:18 82.8 °F 74.1 °F 29.87 in South 6.0 mph 8.0 mph 75% 0.00 in
18:23 82.7 °F 74.4 °F 29.86 in SW 8.0 mph 9.0 mph 76% 0.00 in
18:28 82.5 °F 74.2 °F 29.86 in SSE 3.0 mph 8.0 mph 76% 0.00 in
18:33 82.2 °F 74.3 °F 29.85 in SW 5.0 mph 9.0 mph 77% 0.00 in
18:38 82.0 °F 74.1 °F 29.85 in SW 7.0 mph 9.0 mph 77% 0.00 in
18:43 81.9 °F 74.4 °F 29.85 in WSW 8.0 mph 9.0 mph 78% 0.00 in
18:48 81.6 °F 74.5 °F 29.85 in WSW 6.0 mph 9.0 mph 79% 0.00 in
18:54 81.5 °F 74.4 °F 29.85 in SW 8.0 mph 8.0 mph 79% 0.00 in
18:59 81.4 °F 74.6 °F 29.86 in SW 3.0 mph 11.0 mph 80% 0.00 in
19:04 81.3 °F 74.5 °F 29.86 in SW 8.0 mph 12.0 mph 80% 0.00 in
19:09 81.0 °F 74.6 °F 29.86 in SSW 5.0 mph 11.0 mph 81% 0.00 in
19:14 80.7 °F 74.3 °F 29.86 in SSW 5.0 mph 10.0 mph 81% 0.00 in
19:19 80.7 °F 74.7 °F 29.86 in SW 5.0 mph 7.0 mph 82% 0.00 in
19:24 80.6 °F 74.6 °F 29.87 in SW 3.0 mph 6.0 mph 82% 0.00 in
19:29 80.7 °F 75.1 °F 29.87 in SW 2.0 mph 3.0 mph 83% 0.00 in
19:34 80.8 °F 74.8 °F 29.88 in SW 3.0 mph 5.0 mph 82% 0.00 in
19:39 80.9 °F 74.9 °F 29.87 in SW 5.0 mph 7.0 mph 82% 0.00 in
19:44 80.8 °F 74.4 °F 29.87 in SW 5.0 mph 7.0 mph 81% 0.00 in
19:49 80.8 °F 74.4 °F 29.87 in SW 4.0 mph 5.0 mph 81% 0.00 in
19:54 80.8 °F 74.4 °F 29.88 in WSW 3.0 mph 6.0 mph 81% 0.00 in
19:59 80.7 °F 74.3 °F 29.88 in SW 3.0 mph 5.0 mph 81% 0.00 in
20:04 80.8 °F 74.4 °F 29.88 in SW 4.0 mph 4.0 mph 81% 0.00 in
20:09 80.8 °F 74.4 °F 29.88 in SW 6.0 mph 6.0 mph 81% 0.00 in
20:14 80.7 °F 74.3 °F 29.88 in South 4.0 mph 6.0 mph 81% 0.00 in
20:19 80.7 °F 74.3 °F 29.88 in SW 4.0 mph 6.0 mph 81% 0.00 in
20:24 80.7 °F 74.3 °F 29.88 in SW 3.0 mph 5.0 mph 81% 0.00 in
20:29 80.9 °F 74.2 °F 29.89 in SW 2.0 mph 4.0 mph 80% 0.00 in
20:34 81.1 °F 74.0 °F 29.89 in SW 4.0 mph 4.0 mph 79% 0.00 in
20:39 81.2 °F 73.7 °F 29.89 in SSW 4.0 mph 6.0 mph 78% 0.00 in
20:44 81.1 °F 74.0 °F 29.89 in SSW 3.0 mph 5.0 mph 79% 0.00 in
20:49 80.7 °F 73.6 °F 29.89 in SW 3.0 mph 6.0 mph 79% 0.00 in
20:54 80.4 °F 73.7 °F 29.89 in SW 4.0 mph 7.0 mph 80% 0.00 in
20:59 80.1 °F 73.4 °F 29.89 in SSE 3.0 mph 4.0 mph 80% 0.00 in
21:04 79.8 °F 73.4 °F 29.89 in WSW 6.0 mph 7.0 mph 81% 0.00 in
21:09 79.7 °F 73.4 °F 29.89 in SW 2.0 mph 5.0 mph 81% 0.00 in
21:14 79.5 °F 73.5 °F 29.89 in WSW 2.0 mph 5.0 mph 82% 0.00 in
21:19 79.3 °F 73.7 °F 29.90 in SW 3.0 mph 6.0 mph 83% 0.00 in
21:24 79.0 °F 73.4 °F 29.90 in SW 3.0 mph 4.0 mph 83% 0.00 in
21:29 78.8 °F 73.6 °F 29.90 in SW 2.0 mph 4.0 mph 84% 0.00 in
21:34 78.6 °F 73.4 °F 29.91 in WSW 2.0 mph 3.0 mph 84% 0.00 in
21:39 78.4 °F 73.5 °F 29.91 in Calm   1.0 mph 85% 0.00 in
21:44 78.3 °F 73.4 °F 29.91 in Calm   1.0 mph 85% 0.00 in
21:49 78.1 °F 73.2 °F 29.91 in West 2.0 mph 2.0 mph 85% 0.00 in
21:54 77.9 °F 73.4 °F 29.91 in West 1.0 mph 2.0 mph 86% 0.00 in
21:59 77.7 °F 73.2 °F 29.91 in Calm   1.0 mph 86% 0.00 in
22:04 77.7 °F 73.2 °F 29.91 in Calm   1.0 mph 86% 0.00 in
22:09 77.7 °F 73.2 °F 29.91 in Calm   1.0 mph 86% 0.00 in
22:14 77.5 °F 73.3 °F 29.91 in Calm     87% 0.00 in
22:19 77.4 °F 73.2 °F 29.91 in WSW 1.0 mph 2.0 mph 87% 0.00 in
22:24 77.4 °F 73.2 °F 29.90 in Calm     87% 0.00 in
22:29 77.2 °F 73.0 °F 29.90 in Calm     87% 0.00 in
22:34 76.9 °F 73.1 °F 29.91 in Calm   1.0 mph 88% 0.00 in
22:40 76.6 °F 72.8 °F 29.91 in Calm   1.0 mph 88% 0.00 in
22:45 76.4 °F 72.6 °F 29.91 in Calm     88% 0.00 in
22:50 76.3 °F 72.8 °F 29.91 in Calm     89% 0.00 in
22:55 76.2 °F 72.7 °F 29.91 in Calm   1.0 mph 89% 0.00 in
23:00 76.0 °F 72.5 °F 29.91 in Calm   1.0 mph 89% 0.00 in
23:05 75.7 °F 72.2 °F 29.91 in Calm     89% 0.00 in
23:10 75.5 °F 72.4 °F 29.91 in Calm   1.0 mph 90% 0.00 in
23:15 75.5 °F 72.4 °F 29.91 in Calm     90% 0.00 in
23:20 75.5 °F 72.4 °F 29.91 in Calm     90% 0.00 in
23:25 75.5 °F 72.4 °F 29.91 in Calm   1.0 mph 90% 0.00 in
23:30 75.4 °F 72.3 °F 29.91 in Calm   1.0 mph 90% 0.00 in
23:35 75.2 °F 72.4 °F 29.92 in SSW 1.0 mph 2.0 mph 91% 0.00 in
23:40 75.2 °F 72.4 °F 29.92 in SSE 1.0 mph 2.0 mph 91% 0.00 in
23:45 75.2 °F 72.4 °F 29.92 in SW 2.0 mph 2.0 mph 91% 0.00 in
23:50 75.3 °F 72.5 °F 29.92 in South 2.0 mph 3.0 mph 91% 0.00 in
23:55 75.4 °F 72.6 °F 29.92 in SW 1.0 mph 2.0 mph 91% 0.00 in
Compliments of Weather Underground